Regional Weather Roundup
Issued by NWS Wilmington, NC

Home | Current Version | Previous Version | Text Only | Print | Product List | Glossary On
Versions: 1 2 3 4 5 6 7 8 9 10 11 12 13 14 15 16 17 18 19 20 21 22 23 24 25 26 27 28 29 30 31 32 33 34 35 36 37 38 39 40 41 42 43 44 45 46 47 48 49 50
000
ASUS42 KILM 302310
RWRILM
RWRILM
REGIONAL HOURLY WEATHER ROUNDUP
NATIONAL WEATHER SERVICE WILMINGTON NC
600 PM EST FRI JAN 30 2015

NOTE: "FAIR" INDICATES FEW OR NO CLOUDS BELOW 12,000 FEET WITH NO
SIGNIFICANT WEATHER AND/OR OBSTRUCTIONS TO VISIBILITY.

...............WFO WILMINGTON COUNTY WARNING AREA...............

......COASTAL NC AND SC COUNTIES......

CITY           SKY/WX    TMP DP  RH WIND       PRES   REMARKS
WILMINGTON     CLEAR     46  19  34 NW13      30.14R
SOUTHPORT      CLEAR     46  21  37 NW3       30.15R
N MYRTLE BEACH CLEAR     48  20  32 NW7       30.16R
MYRTLE BEACH   CLEAR     50  21  32 MISG      30.18R

......INLAND NC AND SC COUNTIES.......

CITY           SKY/WX    TMP DP  RH WIND       PRES   REMARKS
LUMBERTON      CLEAR     47  18  31 NW13      30.17R
ELIZABETHTOWN  CLEAR     47  16  29 NW8G20    30.15R
WHITEVILLE     CLEAR     47  19  31 NW5       30.15R
FLORENCE       CLEAR     47  17  30 N9        30.19R
DARLINGTON     CLEAR     45  19  36 NW8       30.21R

....................REST OF NORTH CAROLINA......................

.........EASTERN NC.........

CITY           SKY/WX    TMP DP  RH WIND       PRES   REMARKS
CAPE HATTERAS  PTCLDY    42  29  59 NW7       30.07R
JACKSONVILLE   CLEAR     45  18  33 NW7       30.13R
MOREHEAD CITY  CLEAR     44  24  45 NW14      30.10R
KENANSVILLE    CLEAR     44  17  33 NW6       30.14R
NEW BERN       CLEAR     46  18  32 NW9       30.11R
ELIZABETH CITY CLOUDY    39  29  67 N7        30.08R WCI  34

.........CENTRAL NC.........

CITY           SKY/WX    TMP DP  RH WIND       PRES   REMARKS
RALEIGH DURHAM PTCLDY    40  12  32 NW8G28    30.18R WCI  34
ROCKY MOUNT    CLEAR     42  13  30 NW16G25   30.16R
ROANOKE RAPIDS NOT AVBL
FAYETTEVILLE   CLEAR     46  15  28 NW18G29   30.17R
HOFFMAN        CLEAR     43  16  33 NW8G17    30.20R

.........WESTERN NC.........

CITY           SKY/WX    TMP DP  RH WIND       PRES   REMARKS
CHARLOTTE      CLEAR     42  12  29 NW9       30.23R
GREENSBORO     CLEAR     37   9  31 NW10      30.20R WCI  30
HICKORY        NOT AVBL
BOONE          NOT AVBL
ASHEVILLE      NOT AVBL

.....................REST OF SOUTH CAROLINA.....................

.........EASTERN SC.........

CITY           SKY/WX    TMP DP  RH WIND       PRES   REMARKS
CHARLESTON     PTCLDY    50  23  34 NW7       30.20R
BEAUFORT MCAS  CLEAR     54  29  38 NW7       30.20R
HILTON HEAD    CLEAR     55  36  47 NW5       30.20R

.........CENTRAL SC.........

CITY           SKY/WX    TMP DP  RH WIND       PRES   REMARKS
COLUMBIA       CLEAR     50  18  28 N7        30.22R
ORANGEBURG     CLEAR     51  17  26 N8        30.21R
SUMTER SHAW    CLEAR     49  21  33 NW5       30.19R

.........WESTERN SC.........

CITY           SKY/WX    TMP DP  RH WIND       PRES   REMARKS
GREENVILLE     NOT AVBL
ROCK HILL      CLEAR     43  17  35 NW7       30.23R
ANDERSON       CLEAR     48  18  30 NW10      30.23R
CLEMSON        NOT AVBL
GREENWOOD      CLEAR     47  18  31 N9        30.24R


...................COASTAL AND OFFSHORE REPORTS..................

................LOCAL PIERS AND NC RESERVE................


STATION/POSITION TIME  SKY/WX   TEMP    WIND        PRES    VSBY
                                AIR SEA DIR/SP/G
                 (UTC)          (F)     (DEG/KT/KT) (MB)    (MI)
JOHNY MRCER PIER 2300            48 54  320/ 10/ 16 1019.6R
NC RESRV MASNBRO 2200            49     250/  3     1020.0S
OCEAN CREST PIER 2300            48 53  290/ 10/ 14 1019.8R
SPRINGMAID  PIER 2300            49 50  300/ 10/ 16 1021.3R


................COASTAL AND OFFSHORE BUOYS................


STATION/POSITION TIME  SKY/WX   TEMP    WIND        PRES    VSBY
                                AIR SEA DIR/SP/G
                 (UTC)          (F)     (DEG/KT/KT) (MB)    (MI)
DIMNDSHOAL 41025 2300            46 68  330/ 17/ 23 1017.5R
WVE H/P(F/S)=  5/ 8 WND WVE H/P(F/S)=  5/ 7 SWL H/P/D(F/S/D)=  2/ 30/ 8

CAPE LOOKOUT     2200            47     330/ 17/ 21 1018.1R
ONSLOW BAY 41036 NOT AVBL
5 WRITEBCH 41038 2200            50 52  340/ 16/ 21 1019.1R
MASONBORO  41110 2300               52                N/A
WVE H/P(F/S)=  3/ 3 WND WVE H/P(F/S)=  3/ 3

WILM HARBR 41108 2300               53                N/A
WVE H/P(F/S)=  4/ 4 WND WVE H/P(F/S)=  3/ 4

27WRITEBCH 41037 NOT AVBL
FRYING PAN 41013 2300            51 63  320/ 25/ 31 1020.3R
WVE H/P(F/S)=  6/ 5 WND WVE H/P(F/S)=  5/ 5

SUNST NRSH 41024 2200            51     320/ 16/ 19   N/A
CAPRS NRSH 41029 2200            53     320/ 17/ 19   N/A
EDISTO     41004 2300            56 68  320/ 19/ 25 1020.3R
WVE H/P(F/S)=  5/ 5 WND WVE H/P(F/S)=  5/ 5 SWL H/P/D(F/S/D)=  2/11



..........OFFSHORE BUOYS BEYOND 100 NM OFFSHORE...........
.....IN A TRIANGLE---HAT TO BERMUDA TO BAHAMAS TO HAT.....


STATION/POSITION TIME  SKY/WX   TEMP    WIND        PRES    VSBY
                                AIR SEA DIR/SP/G
                 (UTC)          (F)     (DEG/KT/KT) (MB)    (MI)
150E HAT   41001 NOT AVBL
W BERMUDA  41048 2220            66 71  210/ 27/ 33 1010.4F
WVE H/P(F/S)=  8/ 6 WND WVE H/P(F/S)=  8/ 6 SWL H/P/D(F/S/D)=  2/ 70/10

ATLANTIC S 41049 2211            69 74  360/  2/  2 1017.2R
WVE H/P(F/S)=  8/10 WND WVE H/P(F/S)=  2/ 4 SWL H/P/D(F/S/D)=  8/ 20/10

E BAHAMAS  41046 2220            72 78   CALM  /  4 1017.5R
WVE H/P(F/S)=  7/ 9 WND WVE H/P(F/S)=  2/ 4 SWL H/P/D(F/S/D)=  7/350/ 9

NE BAHAMAS 41047 2248            69 76  260/ 17/ 21 1018.0R
WVE H/P(F/S)=  5/ 9 WND WVE H/P(F/S)=  3/ 6 SWL H/P/D(F/S/D)=  3/ 9

120E CANVRL41010 2300            67 73  320/ 19/ 23 1019.4R
WVE H/P(F/S)=  7/ 6 WND WVE H/P(F/S)=  7/ 6 SWL H/P/D(F/S/D)=  2/ 60/11


END



USA.gov is the U.S. government's official web portal to all federal, state and local government web resources and services.